Location: Westminster
(33.3626°N, 96.4619°W)
Time: 19:03:13
(UTC+00:00)

Cosmos 1515 Rocket - Pass Details

Date: 01 July 2022
Orbit: 604 x 630 km, 82.5° (Epoch: 17 August)

Event Time Altitude Azimuth Distance (km) Brightness Sun altitude
Rises 09:37:31 0° 353° (N) 2,895 7.6 -18.0°
Reaches altitude 10° 09:39:45 10° 353° (N) 1,982 6.6 -17.7°
Maximum altitude 09:44:09 87° 267° (W) 618 3.4 -17.0°
Enters shadow 09:47:29 17° 176° (S) 1,559 5.3 -16.5°
